Location: Krasnoyarskiy Pitomnik
(51.1333°N, 71.6167°E)
Time: 10:19:39
(UTC+00:00)

Cosmos 2360 Rocket - Pass Details

Date: 22 October 2021
Orbit: 832 x 846 km, 71.0° (Epoch: 07 December)

Event Time Altitude Azimuth Distance (km) Brightness Sun altitude
Rises 15:23:59 0° 221° (SW) 3,380 5.6 -31.2°
Reaches altitude 10° 15:26:27 10° 225° (SW) 2,451 4.8 -31.6°
Enters shadow 15:31:09 53° 268° (W) 1,031 2.8 -32.3°
